Location: Gouvernes
(48.8601°N, 2.6907°E)
Time: 15:20:02
(UTC+00:00)

Cosmos 2278 - Pass Details

Date: 16 October 2021
Orbit: 838 x 854 km, 71.1° (Epoch: 28 November)

Event Time Altitude Azimuth Distance (km) Brightness Sun altitude
Rises 19:28:18 0° 221° (SW) 3,390 7.2 -25.4°
Reaches altitude 10° 19:30:47 10° 226° (SW) 2,461 6.4 -25.8°
Maximum altitude 19:36:20 55° 303° (WNW) 1,014 4.3 -26.7°
Drops below altitude 10° 19:41:56 10° 22° (NNE) 2,487 6.1 -27.6°
Sets 19:44:28 0° 27° (NNE) 3,428 6.8 -27.9°
